Time+03,TemperatureF,Dew PointF,Humidity,Sea Level PressureIn,VisibilityMPH,Wind Direction,Wind SpeedMPH,Gust SpeedMPH,PrecipitationIn,Events,Conditions,WindDirDegrees,DateUTC
12:00 AM,70,54,46,30.09,7,WNW,4.6,,,,,300,2013-11-24 21:00:00
12:00 AM,69.8,53.6,56,30.06,-9999.0,WNW,4.6,-,N/A,,Clear,300,2013-11-24 21:00:00
12:30 AM,69.8,51.8,53,30.06,-9999.0,WNW,5.8,-,N/A,,Clear,300,2013-11-24 21:30:00
1:00 AM,69.8,53.6,56,30.06,-9999.0,NW,5.8,-,N/A,,Clear,310,2013-11-24 22:00:00
1:30 AM,69.8,55.4,60,30.06,-9999.0,NW,4.6,-,N/A,,Clear,310,2013-11-24 22:30:00
2:00 AM,69.8,55.4,60,30.06,-9999.0,NW,5.8,-,N/A,,Clear,310,2013-11-24 23:00:00
2:30 AM,69.8,55.4,60,30.06,-9999.0,WNW,4.6,-,N/A,,Clear,300,2013-11-24 23:30:00
3:00 AM,68,56,58,30.08,7,WNW,3.5,,,,,290,2013-11-25 00:00:00
3:00 AM,68.0,57.2,68,30.06,-9999.0,WNW,3.5,-,N/A,,Clear,290,2013-11-25 00:00:00
3:30 AM,68.0,57.2,68,30.06,-9999.0,WNW,4.6,-,N/A,,Clear,300,2013-11-25 00:30:00
4:00 AM,68.0,57.2,68,30.06,-9999.0,WNW,3.5,-,N/A,,Clear,290,2013-11-25 01:00:00
4:30 AM,68.0,57.2,68,30.06,-9999.0,Variable,2.3,-,N/A,,Clear,0,2013-11-25 01:30:00
5:00 AM,68.0,57.2,68,30.06,-9999.0,Variable,2.3,-,N/A,,Clear,0,2013-11-25 02:00:00
5:30 AM,68.0,55.4,64,30.06,-9999.0,West,3.5,-,N/A,,Clear,280,2013-11-25 02:30:00
6:00 AM,67,57,61,30.10,5,,2.3,,,,Haze,,2013-11-25 03:00:00
6:00 AM,66.2,57.2,73,30.09,5.0,Variable,2.3,-,N/A,,Unknown,0,2013-11-25 03:00:00
6:30 AM,66.2,59.0,78,30.09,5.0,WSW,3.5,-,N/A,,Unknown,250,2013-11-25 03:30:00
7:00 AM,68.0,57.2,68,30.09,4.3,WSW,3.5,-,N/A,,Unknown,250,2013-11-25 04:00:00
8:00 AM,71.6,55.4,57,30.12,5.0,WNW,4.6,-,N/A,,Unknown,300,2013-11-25 05:00:00
9:00 AM,74,54,39,30.14,7,WNW,8.1,,,,Scattered Clouds,300,2013-11-25 06:00:00
9:00 AM,73.4,53.6,50,30.12,-9999.0,WNW,8.1,-,N/A,,Clear,300,2013-11-25 06:00:00
9:30 AM,75.2,53.6,47,30.12,-9999.0,NW,8.1,-,N/A,,Clear,320,2013-11-25 06:30:00
10:00 AM,75.2,53.6,47,30.09,6.2,NW,10.4,-,N/A,,Partly Cloudy,320,2013-11-25 07:00:00
11:00 AM,77.0,53.6,44,30.09,6.2,NW,10.4,-,N/A,,Partly Cloudy,320,2013-11-25 08:00:00
12:00 PM,78,53,31,30.08,10,North,12.7,,,,Scattered Clouds,350,2013-11-25 09:00:00
12:00 PM,77.0,53.6,44,30.06,6.2,North,12.7,-,N/A,,Partly Cloudy,350,2013-11-25 09:00:00
1:00 PM,78.8,53.6,42,30.04,6.2,NNW,9.2,-,N/A,,Partly Cloudy,330,2013-11-25 10:00:00
2:00 PM,78.8,51.8,39,30.04,-9999.0,NNW,9.2,-,N/A,,Clear,330,2013-11-25 11:00:00
2:30 PM,78.8,51.8,39,30.04,-9999.0,NNW,10.4,-,N/A,,Clear,330,2013-11-25 11:30:00
3:00 PM,78,53,31,30.04,9,NW,8.1,,,,Clear,320,2013-11-25 12:00:00
3:00 PM,78.8,53.6,42,30.04,-9999.0,NW,8.1,-,N/A,,Clear,320,2013-11-25 12:00:00
3:30 PM,77.0,53.6,44,30.04,6.2,North,9.2,-,N/A,,Partly Cloudy,350,2013-11-25 12:30:00
4:00 PM,77.0,53.6,44,30.04,-9999.0,NW,8.1,-,N/A,,Clear,320,2013-11-25 13:00:00
4:30 PM,75.2,53.6,47,30.04,6.2,NNW,8.1,-,N/A,,Partly Cloudy,330,2013-11-25 13:30:00
5:00 PM,75.2,53.6,47,30.04,-9999.0,NNW,9.2,-,N/A,,Clear,330,2013-11-25 14:00:00
5:30 PM,75.2,55.4,50,30.06,-9999.0,NNW,8.1,-,N/A,,Clear,330,2013-11-25 14:30:00
6:00 PM,75,56,42,30.07,9,NW,8.1,,,,,310,2013-11-25 15:00:00
6:00 PM,75.2,57.2,53,30.06,-9999.0,NW,8.1,-,N/A,,Clear,310,2013-11-25 15:00:00
6:30 PM,73.4,57.2,57,30.06,-9999.0,NW,6.9,-,N/A,,Clear,310,2013-11-25 15:30:00
7:00 PM,73.4,57.2,57,30.06,-9999.0,WNW,8.1,-,N/A,,Clear,300,2013-11-25 16:00:00
7:30 PM,73.4,59.0,61,30.06,-9999.0,WNW,4.6,-,N/A,,Clear,290,2013-11-25 16:30:00
8:00 PM,71.6,57.2,60,30.06,-9999.0,WNW,4.6,-,N/A,,Clear,290,2013-11-25 17:00:00